Rbgn^[z[y[W
メイン
   新天体発見情報
     Comet C/2018 C2 (Lemmon)
投稿するにはまず登録を

スレッド表示 | 新しいものから 前のトピック | 次のトピック | 下へ
投稿者 スレッド
佐藤裕久
投稿日時: 2018-3-31 15:31
モデレータ
登録日: 2005-6-12
居住地: 日本
投稿: 2505
オンライン
Comet C/2018 C2 (Lemmon)

2月5日、Mt Lemmonサーベイのコースに1.5-m反射望遠鏡で得たCCD観測から見たところ小惑星状天体が
見つかった。
3月22.64日UT、K. Meech, J. Kleyna, J. V. KeaneとD. WoodworthがMauna Keaにある3.6-m Canada-
France-Hawaii Telescopeで得た2枚の60秒のr-バンド露出で、拡がって見え、西に約10" 伸びたかす
かな尾があるのがわかった。Michelはコマがわずかだけ拡がっている(FWHM(半値全幅)は近傍の恒星が
0".9であるのに対し0".9)ことを付け加えた。測定された光度は17.6-17.7等であった。

発見位置は次のとおり、

     2018 UT             R.A. (2000) Decl.       Mag.
     Feb.  5.50901   14 23 51.85   +34 35 51.4   19.9
           5.51420   14 23 52.34   +34 35 54.1   19.8
           5.51941   14 23 52.78   +34 35 56.5   20.2
           5.52461   14 23 53.27   +34 35 59.1
           5.55073   14 23 55.64   +34 36 12.0   19.6
           5.55240   14 23 55.79   +34 36 12.3   19.5
           5.55406   14 23 55.93   +34 36 13.2   19.7

僅かな双曲線軌道要素と位置推算表は次のとおり、

Orbital elements:
    C/2018 C2 (Lemmon)
Epoch 2018 June 11.0 TT = JDT 2458280.5
T 2018 June 2.22004 TT                                  MPCW
q   1.9565334            (2000.0)            P               Q
z  -0.0009276      Peri.  134.13640     -0.57782638     +0.58837108
 +/-0.0000139      Node    91.13935     -0.81108266     -0.49114639
e   1.0018149      Incl.   34.45375     +0.09089331     -0.64233535
From 216 observations 2018 Jan. 28-Mar. 24, mean residual 0".3.

    C/2018 C2 (Lemmon)
Epoch 2018 Mar. 23.0 TT = JDT 2458200.5
T 2018 June 2.22749 TT                                  MPCW
q   1.9565218            (2000.0)            P               Q
z  -0.0008684      Peri.  134.13772     -0.57778828     +0.58841988
 +/-0.0000139      Node    91.14179     -0.81111339     -0.49110778
e   1.0016991      Incl.   34.45296     +0.09086121     -0.64232017
From 216 observations 2018 Jan. 28-Mar. 24, mean residual 0".3.

Ephemeris:
    C/2018 C2 (Lemmon)
Date    TT    R. A. (2000) Decl.     Delta      r     Elong.  Phase   m1    m2
2018 02 26    14 51 48.8 +37 32 10   1.6658  2.2788   115.8    23.0        19.1
...
2018 03 13    15 06 05.1 +39 39 03   1.5278  2.1927   119.3    23.3        18.8
...
2018 03 21    15 10 51.7 +40 36 05   1.4642  2.1511   120.7    23.5        18.7
...
2018 03 27    15 12 59.7 +41 09 52   1.4209  2.1221   121.7    23.6        18.6
2018 03 28    15 13 13.6 +41 14 33   1.4140  2.1174   121.8    23.6        18.6
2018 03 29    15 13 25.4 +41 18 56   1.4072  2.1129   122.0    23.6        18.6
...
2018 04 04    15 13 52.0 +41 38 22   1.3686  2.0866   122.7    23.8        18.5
...
2018 04 12    15 12 32.7 +41 42 28   1.3227  2.0548   123.6    24.0        18.4
...
2018 04 27    15 05 15.7 +40 22 47   1.2543  2.0065   124.8    24.3        18.2

(CBET 4501、MPEC 2018-F136)

スレッド表示 | 新しいものから 前のトピック | 次のトピック | トップ

投稿するにはまず登録を
 
© 1999 Tsutomu Seki.